Time,TemperatureF,DewpointF,PressureIn,WindDirection,WindDirectionDegrees,WindSpeedMPH,WindSpeedGustMPH,Humidity,HourlyPrecipIn,Conditions,Clouds,dailyrainin,SoftwareType,DateUTC
2013-01-30 00:04:00,33.0,29.0,30.10,South,186,0.0,1.0,86,0.00,,,0.07,,2013-01-30 05:04:00,
2013-01-30 00:12:00,33.0,29.0,30.10,South,186,0.0,1.0,86,0.00,,,0.07,,2013-01-30 05:12:00,
2013-01-30 00:22:00,33.0,29.0,30.10,South,186,0.0,1.0,86,0.00,,,0.07,,2013-01-30 05:22:00,
2013-01-30 00:32:00,33.0,29.0,30.09,SSE,158,0.0,2.0,86,0.00,,,0.07,,2013-01-30 05:32:00,
2013-01-30 00:43:00,33.0,29.0,30.09,SSE,158,0.0,2.0,86,0.00,,,0.07,,2013-01-30 05:43:00,
2013-01-30 00:52:00,33.0,29.0,30.09,SSE,158,0.0,2.0,86,0.00,,,0.07,,2013-01-30 05:52:00,
2013-01-30 01:02:00,33.0,29.0,30.08,South,180,0.0,2.0,86,0.00,,,0.07,,2013-01-30 06:02:00,
2013-01-30 01:12:00,33.0,29.0,30.08,South,180,0.0,2.0,86,0.00,,,0.07,,2013-01-30 06:12:00,
2013-01-30 01:22:00,33.0,29.0,30.08,South,180,0.0,2.0,86,0.00,,,0.07,,2013-01-30 06:22:00,
2013-01-30 01:32:00,33.0,29.0,30.08,SE,135,0.0,1.0,86,0.00,,,0.07,,2013-01-30 06:32:00,
2013-01-30 01:42:00,33.0,29.0,30.08,SE,135,0.0,1.0,86,0.00,,,0.07,,2013-01-30 06:42:00,
2013-01-30 01:52:00,33.0,29.0,30.08,SE,135,0.0,1.0,86,0.00,,,0.07,,2013-01-30 06:52:00,
2013-01-30 02:02:00,33.0,29.0,30.06,SE,135,0.0,1.0,86,0.01,,,0.09,,2013-01-30 07:02:00,
2013-01-30 02:12:00,33.0,29.0,30.06,SE,135,0.0,1.0,86,0.01,,,0.09,,2013-01-30 07:12:00,
2013-01-30 02:22:00,33.0,29.0,30.06,SE,135,0.0,1.0,86,0.01,,,0.09,,2013-01-30 07:22:00,
2013-01-30 02:32:00,33.0,29.0,30.04,ENE,68,0.0,0.0,86,0.00,,,0.09,,2013-01-30 07:32:00,
2013-01-30 02:42:00,33.0,29.0,30.04,ENE,68,0.0,0.0,86,0.00,,,0.09,,2013-01-30 07:42:00,
2013-01-30 02:52:00,33.0,29.0,30.04,ENE,68,0.0,0.0,86,0.00,,,0.09,,2013-01-30 07:52:00,
2013-01-30 03:02:00,33.0,29.0,30.02,East,90,0.0,1.0,86,0.01,,,0.10,,2013-01-30 08:02:00,
2013-01-30 03:11:00,33.0,29.0,30.02,East,90,0.0,1.0,86,0.01,,,0.10,,2013-01-30 08:11:00,
2013-01-30 03:22:00,33.0,29.0,30.02,East,90,0.0,1.0,86,0.01,,,0.10,,2013-01-30 08:22:00,
2013-01-30 03:32:00,33.0,30.0,30.01,ENE,68,0.0,0.0,87,0.01,,,0.10,,2013-01-30 08:32:00,
2013-01-30 03:42:00,33.0,30.0,30.01,ENE,68,0.0,0.0,87,0.01,,,0.10,,2013-01-30 08:42:00,
2013-01-30 03:52:00,33.0,30.0,30.01,ENE,68,0.0,0.0,87,0.01,,,0.10,,2013-01-30 08:52:00,
2013-01-30 04:02:00,33.0,30.0,30.01,ENE,68,0.0,0.0,87,0.01,,,0.10,,2013-01-30 09:02:00,
2013-01-30 04:11:00,33.0,30.0,30.01,ENE,68,0.0,0.0,87,0.01,,,0.10,,2013-01-30 09:11:00,
2013-01-30 04:32:00,33.0,30.0,29.98,NE,45,0.0,0.0,87,0.00,,,0.10,,2013-01-30 09:32:00,
2013-01-30 04:42:00,33.0,30.0,29.98,NE,45,0.0,0.0,87,0.00,,,0.10,,2013-01-30 09:42:00,
2013-01-30 04:52:00,33.0,30.0,29.98,NE,45,0.0,0.0,87,0.00,,,0.10,,2013-01-30 09:52:00,
2013-01-30 05:02:00,33.0,30.0,29.97,North,0,0.0,1.0,87,0.00,,,0.10,,2013-01-30 10:02:00,
2013-01-30 05:12:00,33.0,30.0,29.97,North,0,0.0,1.0,87,0.00,,,0.10,,2013-01-30 10:12:00,
2013-01-30 05:22:00,33.0,30.0,29.97,North,0,0.0,1.0,87,0.00,,,0.10,,2013-01-30 10:22:00,
2013-01-30 05:32:00,33.0,30.0,29.97,North,0,0.0,1.0,87,0.00,,,0.10,,2013-01-30 10:32:00,
2013-01-30 05:42:00,33.0,30.0,29.97,North,0,0.0,1.0,87,0.00,,,0.10,,2013-01-30 10:42:00,
2013-01-30 06:02:00,33.0,30.0,29.95,NE,45,0.0,0.0,87,0.00,,,0.10,,2013-01-30 11:02:00,
2013-01-30 06:11:00,33.0,30.0,29.95,NE,45,0.0,0.0,87,0.00,,,0.10,,2013-01-30 11:11:00,
2013-01-30 06:22:00,33.0,30.0,29.95,NE,45,0.0,0.0,87,0.00,,,0.10,,2013-01-30 11:22:00,
2013-01-30 06:33:00,33.0,30.0,29.93,East,90,0.0,0.0,87,0.01,,,0.11,,2013-01-30 11:33:00,
2013-01-30 06:42:00,33.0,30.0,29.93,East,90,0.0,0.0,87,0.01,,,0.11,,2013-01-30 11:42:00,
2013-01-30 06:52:00,33.0,30.0,29.93,East,90,0.0,0.0,87,0.01,,,0.11,,2013-01-30 11:52:00,
2013-01-30 07:02:00,33.0,30.0,29.92,East,90,0.0,0.0,87,0.01,,,0.11,,2013-01-30 12:02:00,
2013-01-30 07:12:00,33.0,30.0,29.92,East,90,0.0,0.0,87,0.01,,,0.11,,2013-01-30 12:12:00,
2013-01-30 07:22:00,33.0,30.0,29.92,East,90,0.0,0.0,87,0.01,,,0.11,,2013-01-30 12:22:00,
2013-01-30 07:33:00,34.0,31.0,29.89,East,90,0.0,0.0,87,0.00,,,0.11,,2013-01-30 12:33:00,
2013-01-30 07:43:00,34.0,31.0,29.89,East,90,0.0,0.0,87,0.00,,,0.11,,2013-01-30 12:43:00,
2013-01-30 08:03:00,36.0,33.0,29.88,South,180,1.0,7.0,87,0.00,,,0.11,,2013-01-30 13:03:00,
2013-01-30 08:12:00,36.0,33.0,29.88,South,180,1.0,7.0,87,0.00,,,0.11,,2013-01-30 13:12:00,
2013-01-30 08:23:00,36.0,33.0,29.88,South,180,1.0,7.0,87,0.00,,,0.11,,2013-01-30 13:23:00,
2013-01-30 08:33:00,40.0,36.0,29.87,SSE,158,2.0,12.0,87,0.01,,,0.13,,2013-01-30 13:33:00,
2013-01-30 08:43:00,40.0,36.0,29.87,SSE,158,2.0,12.0,87,0.01,,,0.13,,2013-01-30 13:43:00,
2013-01-30 08:53:00,40.0,36.0,29.87,SSE,158,2.0,12.0,87,0.01,,,0.13,,2013-01-30 13:53:00,
2013-01-30 09:03:00,43.0,39.0,29.86,WNW,292,3.0,10.0,87,0.01,,,0.13,,2013-01-30 14:03:00,
2013-01-30 09:12:00,43.0,39.0,29.86,WNW,292,3.0,10.0,87,0.01,,,0.13,,2013-01-30 14:12:00,
2013-01-30 09:23:00,43.0,39.0,29.86,WNW,292,3.0,10.0,87,0.01,,,0.13,,2013-01-30 14:23:00,
2013-01-30 09:33:00,45.0,41.0,29.83,SSW,202,3.0,8.0,87,0.01,,,0.14,,2013-01-30 14:33:00,
2013-01-30 09:43:00,45.0,41.0,29.83,SSW,202,3.0,8.0,87,0.01,,,0.14,,2013-01-30 14:43:00,
2013-01-30 09:53:00,45.0,41.0,29.83,SSW,202,3.0,8.0,87,0.01,,,0.14,,2013-01-30 14:53:00,
2013-01-30 10:03:00,46.0,42.0,29.82,SW,225,2.0,14.0,87,0.03,,,0.16,,2013-01-30 15:03:00,
2013-01-30 10:12:00,46.0,42.0,29.82,SW,225,2.0,14.0,87,0.03,,,0.16,,2013-01-30 15:12:00,
2013-01-30 10:23:00,46.0,42.0,29.82,SW,225,2.0,14.0,87,0.03,,,0.16,,2013-01-30 15:23:00,
2013-01-30 10:33:00,46.0,42.0,29.85,SSW,202,2.0,10.0,87,0.01,,,0.16,,2013-01-30 15:33:00,
2013-01-30 10:43:00,46.0,42.0,29.85,SSW,202,2.0,10.0,87,0.01,,,0.16,,2013-01-30 15:43:00,
2013-01-30 10:53:00,46.0,42.0,29.85,SSW,202,2.0,10.0,87,0.01,,,0.16,,2013-01-30 15:53:00,
2013-01-30 11:03:00,47.0,43.0,29.80,NE,45,3.0,6.0,87,0.00,,,0.16,,2013-01-30 16:03:00,
2013-01-30 11:13:00,47.0,43.0,29.80,NE,45,3.0,6.0,87,0.00,,,0.16,,2013-01-30 16:13:00,
2013-01-30 11:23:00,47.0,43.0,29.80,NE,45,3.0,6.0,87,0.00,,,0.16,,2013-01-30 16:23:00,
2013-01-30 11:32:00,48.0,44.0,29.82,SSE,158,2.0,3.0,87,0.00,,,0.16,,2013-01-30 16:32:00,
2013-01-30 11:42:00,48.0,44.0,29.82,SSE,158,2.0,3.0,87,0.00,,,0.16,,2013-01-30 16:42:00,
2013-01-30 11:52:00,48.0,44.0,29.82,SSE,158,2.0,3.0,87,0.00,,,0.16,,2013-01-30 16:52:00,
2013-01-30 12:02:00,49.0,45.0,29.79,East,90,2.0,5.0,87,0.00,,,0.16,,2013-01-30 17:02:00,
2013-01-30 12:13:00,49.0,45.0,29.79,East,90,2.0,5.0,87,0.00,,,0.16,,2013-01-30 17:13:00,
2013-01-30 12:23:00,49.0,45.0,29.79,East,90,2.0,5.0,87,0.00,,,0.16,,2013-01-30 17:23:00,
2013-01-30 12:33:00,49.0,45.0,29.79,East,90,2.0,5.0,87,0.00,,,0.16,,2013-01-30 17:33:00,
2013-01-30 12:43:00,49.0,45.0,29.79,East,90,2.0,5.0,87,0.00,,,0.16,,2013-01-30 17:43:00,
2013-01-30 13:03:00,49.0,45.0,29.74,SE,135,2.0,6.0,86,0.00,,,0.16,,2013-01-30 18:03:00,
2013-01-30 13:13:00,49.0,45.0,29.74,SE,135,2.0,6.0,86,0.00,,,0.16,,2013-01-30 18:13:00,
2013-01-30 13:23:00,49.0,45.0,29.74,SE,135,2.0,6.0,86,0.00,,,0.16,,2013-01-30 18:23:00,
2013-01-30 13:33:00,50.0,46.0,29.73,SSE,158,2.0,7.0,85,0.00,,,0.16,,2013-01-30 18:33:00,
2013-01-30 13:43:00,50.0,46.0,29.73,SSE,158,2.0,7.0,85,0.00,,,0.16,,2013-01-30 18:43:00,
2013-01-30 13:53:00,50.0,46.0,29.73,SSE,158,2.0,7.0,85,0.00,,,0.16,,2013-01-30 18:53:00,
2013-01-30 14:03:00,50.0,46.0,29.73,SSE,158,2.0,7.0,85,0.00,,,0.16,,2013-01-30 19:03:00,
2013-01-30 14:33:00,53.0,49.0,29.69,SSW,202,4.0,12.0,86,0.00,,,0.16,,2013-01-30 19:33:00,
2013-01-30 14:43:00,53.0,49.0,29.69,SSW,202,4.0,12.0,86,0.00,,,0.16,,2013-01-30 19:43:00,
2013-01-30 14:53:00,53.0,49.0,29.69,SSW,202,4.0,12.0,86,0.00,,,0.16,,2013-01-30 19:53:00,
2013-01-30 15:03:00,53.0,49.0,29.64,SSE,158,3.0,12.0,86,0.00,,,0.14,,2013-01-30 20:03:00,
2013-01-30 15:12:00,53.0,49.0,29.64,SSE,158,3.0,12.0,86,0.00,,,0.14,,2013-01-30 20:12:00,
2013-01-30 15:22:00,53.0,49.0,29.64,SSE,158,3.0,12.0,86,0.00,,,0.14,,2013-01-30 20:22:00,
2013-01-30 15:33:00,53.0,49.0,29.63,East,90,3.0,15.0,86,0.00,,,0.14,,2013-01-30 20:33:00,
2013-01-30 15:42:00,53.0,49.0,29.63,East,90,3.0,15.0,86,0.00,,,0.14,,2013-01-30 20:42:00,
2013-01-30 15:53:00,53.0,49.0,29.63,East,90,3.0,15.0,86,0.00,,,0.14,,2013-01-30 20:53:00,
2013-01-30 16:04:00,53.0,49.0,29.61,South,180,3.0,9.0,86,0.00,,,0.14,,2013-01-30 21:04:00,
2013-01-30 16:12:00,53.0,49.0,29.61,South,180,3.0,9.0,86,0.00,,,0.14,,2013-01-30 21:12:00,
2013-01-30 16:23:00,53.0,49.0,29.61,South,180,3.0,9.0,86,0.00,,,0.14,,2013-01-30 21:23:00,
2013-01-30 16:32:00,53.0,49.0,29.61,South,180,5.0,16.0,86,0.00,,,0.13,,2013-01-30 21:32:00,
2013-01-30 16:43:00,53.0,49.0,29.61,South,180,5.0,16.0,86,0.00,,,0.13,,2013-01-30 21:43:00,
2013-01-30 16:53:00,53.0,49.0,29.61,South,180,5.0,16.0,86,0.00,,,0.13,,2013-01-30 21:53:00,
2013-01-30 17:03:00,54.0,50.0,29.61,SSE,158,5.0,7.0,87,0.00,,,0.13,,2013-01-30 22:03:00,
2013-01-30 17:12:00,54.0,50.0,29.61,SSE,158,5.0,7.0,87,0.00,,,0.13,,2013-01-30 22:12:00,
2013-01-30 17:22:00,54.0,50.0,29.61,SSE,158,5.0,7.0,87,0.00,,,0.13,,2013-01-30 22:22:00,
2013-01-30 17:32:00,53.0,49.0,29.65,ENE,68,2.0,7.0,87,0.01,,,0.14,,2013-01-30 22:32:00,
2013-01-30 17:42:00,53.0,49.0,29.65,ENE,68,2.0,7.0,87,0.01,,,0.14,,2013-01-30 22:42:00,
2013-01-30 17:53:00,53.0,49.0,29.65,ENE,68,2.0,7.0,87,0.01,,,0.14,,2013-01-30 22:53:00,
2013-01-30 18:03:00,54.0,50.0,29.70,NW,315,4.0,8.0,87,0.01,,,0.14,,2013-01-30 23:03:00,
2013-01-30 18:12:00,54.0,50.0,29.70,NW,315,4.0,8.0,87,0.01,,,0.14,,2013-01-30 23:12:00,
2013-01-30 18:22:00,54.0,50.0,29.70,NW,315,4.0,8.0,87,0.01,,,0.14,,2013-01-30 23:22:00,
2013-01-30 18:33:00,54.0,50.0,29.65,SW,225,3.0,12.0,87,0.00,,,0.14,,2013-01-30 23:33:00,
2013-01-30 18:42:00,54.0,50.0,29.65,SW,225,3.0,12.0,87,0.00,,,0.14,,2013-01-30 23:42:00,
2013-01-30 18:52:00,54.0,50.0,29.65,SW,225,3.0,12.0,87,0.00,,,0.14,,2013-01-30 23:52:00,
2013-01-30 19:02:00,54.0,50.0,29.62,SSE,158,5.0,8.0,87,0.00,,,0.14,,2013-01-31 00:02:00,
2013-01-30 19:11:00,54.0,50.0,29.62,SSE,158,5.0,8.0,87,0.00,,,0.14,,2013-01-31 00:11:00,
2013-01-30 19:22:00,54.0,50.0,29.62,SSE,158,5.0,8.0,87,0.00,,,0.14,,2013-01-31 00:22:00,
2013-01-30 19:32:00,54.0,50.0,29.56,SW,225,5.0,10.0,87,0.00,,,0.14,,2013-01-31 00:32:00,
2013-01-30 19:42:00,54.0,50.0,29.56,SW,225,5.0,10.0,87,0.00,,,0.14,,2013-01-31 00:42:00,
2013-01-30 19:53:00,54.0,50.0,29.56,SW,225,5.0,10.0,87,0.00,,,0.14,,2013-01-31 00:53:00,
2013-01-30 20:02:00,54.0,50.0,29.56,SW,225,5.0,10.0,87,0.00,,,0.14,,2013-01-31 01:02:00,
2013-01-30 20:12:00,54.0,50.0,29.56,SW,225,5.0,10.0,87,0.00,,,0.14,,2013-01-31 01:12:00,
2013-01-30 20:32:00,55.0,51.0,29.55,SSW,202,3.0,6.0,87,0.00,,,0.13,,2013-01-31 01:32:00,
2013-01-30 20:42:00,55.0,51.0,29.55,SSW,202,3.0,6.0,87,0.00,,,0.13,,2013-01-31 01:42:00,
2013-01-30 20:53:00,55.0,51.0,29.55,SSW,202,3.0,6.0,87,0.00,,,0.13,,2013-01-31 01:53:00,
2013-01-30 21:01:00,55.0,51.0,29.54,South,180,3.0,9.0,87,0.00,,,0.13,,2013-01-31 02:01:00,
2013-01-30 21:12:00,55.0,51.0,29.54,South,180,3.0,9.0,87,0.00,,,0.13,,2013-01-31 02:12:00,
2013-01-30 21:22:00,55.0,51.0,29.54,South,180,3.0,9.0,87,0.00,,,0.13,,2013-01-31 02:22:00,
2013-01-30 21:32:00,55.0,51.0,29.53,SSW,202,5.0,6.0,87,0.00,,,0.13,,2013-01-31 02:32:00,
2013-01-30 21:42:00,55.0,51.0,29.53,SSW,202,5.0,6.0,87,0.00,,,0.13,,2013-01-31 02:42:00,
2013-01-30 21:52:00,55.0,51.0,29.53,SSW,202,5.0,6.0,87,0.00,,,0.13,,2013-01-31 02:52:00,
2013-01-30 22:03:00,54.0,50.0,29.53,SW,225,3.0,7.0,87,0.00,,,0.11,,2013-01-31 03:03:00,
2013-01-30 22:11:00,54.0,50.0,29.53,SW,225,3.0,7.0,87,0.00,,,0.11,,2013-01-31 03:11:00,
2013-01-30 22:22:00,54.0,50.0,29.53,SW,225,3.0,7.0,87,0.00,,,0.11,,2013-01-31 03:22:00,
2013-01-30 22:32:00,54.0,50.0,29.51,South,180,3.0,13.0,87,0.00,,,0.11,,2013-01-31 03:32:00,
2013-01-30 22:42:00,54.0,50.0,29.51,South,180,3.0,13.0,87,0.00,,,0.11,,2013-01-31 03:42:00,
2013-01-30 22:52:00,54.0,50.0,29.51,South,180,3.0,13.0,87,0.00,,,0.11,,2013-01-31 03:52:00,
2013-01-30 23:02:00,54.0,50.0,29.51,South,180,3.0,13.0,87,0.00,,,0.11,,2013-01-31 04:02:00,
2013-01-30 23:11:00,54.0,50.0,29.51,South,180,3.0,13.0,87,0.00,,,0.11,,2013-01-31 04:11:00,
2013-01-30 23:32:00,55.0,51.0,29.46,SW,225,3.0,9.0,87,0.01,,,0.11,,2013-01-31 04:32:00,
2013-01-30 23:42:00,55.0,51.0,29.46,SW,225,3.0,9.0,87,0.01,,,0.11,,2013-01-31 04:42:00,
2013-01-30 23:52:00,55.0,51.0,29.46,SW,225,3.0,9.0,87,0.01,,,0.11,,2013-01-31 04:52:00,